DLH595 DNAA-EDDF

Flight info

Callsign DLH595
Flight time N/A
Altitude 37000
Route OXORU1Q OXORU DCT MIMBA/N0474F360 UA604 AS/N0473F380 UR978 CSO UA605 CIRTA DCT ERETI DCT OMARD/N0457F400 DCT NOSTA DCT NOPMU DCT ABESI DCT LADOL T163 EMPAX EMPAX5B
Aircraft A333/H-SDE2E3FGHIJ3J4J5LM1OP2RWXYZ/LB1D1

Departure

Time 2026-04-24 09:05
Airport Nnamdi Azikiwe International Airport (DNAA)

Arrival

Time N/A
Airport Frankfurt Main Airport (EDDF)
Time Latitude Longitude Altitude Speed Heading
2026-04-24 08:51 9.00571 7.26861 1138 ft 0 kts 76°
2026-04-24 08:57 9.00568 7.26851 1137 ft 4 kts 76°
2026-04-24 08:57 9.00562 7.26825 1134 ft 4 kts 75°
2026-04-24 08:57 9.00554 7.26799 1137 ft 4 kts 58°
2026-04-24 08:58 9.00539 7.26786 1135 ft 3 kts 349°
2026-04-24 08:58 9.00545 7.26785 1137 ft 4 kts 352°
2026-04-24 08:58 9.00570 7.26781 1135 ft 2 kts 342°
2026-04-24 08:58 9.00571 7.26780 1137 ft 1 kts 342°
2026-04-24 09:00 9.00573 7.26780 1132 ft 1 kts 342°
2026-04-24 09:00 9.00592 7.26773 1137 ft 6 kts 339°
2026-04-24 09:00 9.00638 7.26735 1136 ft 9 kts 308°
2026-04-24 09:00 9.00685 7.26668 1137 ft 15 kts 305°
2026-04-24 09:01 9.00753 7.26600 1135 ft 13 kts 343°
2026-04-24 09:01 9.00829 7.26629 1138 ft 13 kts 35°
2026-04-24 09:01 9.00930 7.26701 1139 ft 23 kts 35°
2026-04-24 09:01 9.01063 7.26794 1141 ft 23 kts 34°
2026-04-24 09:02 9.01190 7.26884 1143 ft 22 kts 35°
2026-04-24 09:02 9.01311 7.26969 1144 ft 21 kts 35°
2026-04-24 09:02 9.01426 7.27051 1145 ft 20 kts 35°
2026-04-24 09:02 9.01537 7.27130 1146 ft 19 kts 35°
2026-04-24 09:03 9.01642 7.27205 1145 ft 18 kts 35°
2026-04-24 09:03 9.01744 7.27276 1148 ft 17 kts 34°
2026-04-24 09:03 9.01837 7.27341 1151 ft 13 kts 34°
2026-04-24 09:03 9.01918 7.27360 1148 ft 11 kts 341°
2026-04-24 09:04 9.01967 7.27306 1148 ft 10 kts 306°
2026-04-24 09:04 9.01995 7.27246 1149 ft 8 kts 262°
2026-04-24 09:04 9.01953 7.27210 1147 ft 12 kts 214°
2026-04-24 09:04 9.01748 7.27067 1148 ft 64 kts 214°
2026-04-24 09:05 9.01233 7.26707 1144 ft 116 kts 214°
2026-04-24 09:05 9.00433 7.26147 1136 ft 162 kts 215°
2026-04-24 09:05 8.99452 7.25480 1658 ft 167 kts 212°
2026-04-24 09:05 8.98490 7.24851 2363 ft 166 kts 214°
2026-04-24 09:06 8.97598 7.24089 2842 ft 179 kts 234°
2026-04-24 09:06 8.97345 7.22797 3039 ft 206 kts 279°
2026-04-24 09:06 8.98162 7.21556 3419 ft 225 kts 322°
2026-04-24 09:06 8.99599 7.20825 4011 ft 230 kts 335°
2026-04-24 09:07 9.01079 7.20216 4568 ft 234 kts 336°
2026-04-24 09:07 9.02589 7.19572 5149 ft 236 kts 334°
2026-04-24 09:07 9.05574 7.18203 6454 ft 235 kts 335°
2026-04-24 09:08 9.07055 7.17503 7036 ft 235 kts 335°
2026-04-24 09:08 9.08538 7.16795 7631 ft 235 kts 336°
2026-04-24 09:08 9.10012 7.16086 8215 ft 236 kts 336°
2026-04-24 09:08 9.11501 7.15368 8830 ft 236 kts 337°
2026-04-24 09:09 9.12991 7.14648 9400 ft 239 kts 338°
2026-04-24 09:09 9.14542 7.14049 9903 ft 239 kts 351°
2026-04-24 09:09 9.16203 7.14075 10250 ft 246 kts 13°
2026-04-24 09:09 9.17915 7.14562 10414 ft 266 kts 19°
2026-04-24 09:10 9.19730 7.15178 10613 ft 285 kts 19°
2026-04-24 09:10 9.21665 7.15838 10830 ft 302 kts 19°
2026-04-24 09:10 9.23718 7.16525 11041 ft 319 kts 19°
2026-04-24 09:10 9.25880 7.17239 11232 ft 335 kts 18°
2026-04-24 09:11 9.28142 7.17983 11519 ft 347 kts 18°
2026-04-24 09:11 9.30463 7.18743 11963 ft 354 kts 18°
2026-04-24 09:11 9.32821 7.19514 12469 ft 358 kts 18°
2026-04-24 09:11 9.35198 7.20291 13063 ft 360 kts 18°
2026-04-24 09:12 9.37593 7.21074 13542 ft 365 kts 18°
2026-04-24 09:12 9.40018 7.21867 14075 ft 367 kts 17°
2026-04-24 09:12 9.42445 7.22660 14616 ft 368 kts 17°
2026-04-24 09:12 9.44905 7.23463 15043 ft 374 kts 17°
2026-04-24 09:13 9.47386 7.24274 15563 ft 376 kts 17°
2026-04-24 09:13 9.49889 7.25093 15962 ft 381 kts 17°
2026-04-24 09:13 9.52424 7.25922 16409 ft 384 kts 16°
2026-04-24 09:13 9.54983 7.26760 16869 ft 388 kts 17°
2026-04-24 09:14 9.57568 7.27606 17262 ft 393 kts 15°
2026-04-24 09:14 9.60177 7.28460 17710 ft 396 kts 15°
2026-04-24 09:14 9.62814 7.29323 18094 ft 400 kts 16°
2026-04-24 09:14 9.65471 7.30192 18483 ft 403 kts 17°
2026-04-24 09:15 9.68111 7.31056 18831 ft 406 kts 16°
2026-04-24 09:15 9.70814 7.31942 19177 ft 409 kts 15°
2026-04-24 09:15 9.73530 7.32830 19524 ft 412 kts 16°
2026-04-24 09:15 9.76267 7.33727 19874 ft 415 kts 16°
2026-04-24 09:16 9.79012 7.34629 20286 ft 415 kts 15°
2026-04-24 09:16 9.81772 7.35532 20608 ft 418 kts 16°
2026-04-24 09:16 9.84551 7.36443 20937 ft 421 kts 15°
2026-04-24 09:16 9.87353 7.37354 21261 ft 424 kts 15°
2026-04-24 09:17 9.90181 7.38253 21575 ft 427 kts 15°
2026-04-24 09:17 9.93028 7.39146 21888 ft 430 kts 16°
2026-04-24 09:17 9.95894 7.40042 22204 ft 433 kts 15°
2026-04-24 09:17 9.98778 7.40945 22519 ft 435 kts 16°
2026-04-24 09:18 10.01680 7.41852 22833 ft 438 kts 15°
2026-04-24 09:18 10.04603 7.42766 23123 ft 441 kts 16°
2026-04-24 09:18 10.07541 7.43689 23430 ft 443 kts 15°
2026-04-24 09:18 10.10499 7.44620 23674 ft 446 kts 16°
2026-04-24 09:19 10.13462 7.45552 24011 ft 446 kts 15°
2026-04-24 09:19 10.16427 7.46485 24342 ft 446 kts 16°
2026-04-24 09:19 10.19390 7.47417 24688 ft 446 kts 16°
2026-04-24 09:19 10.22351 7.48348 25028 ft 446 kts 16°
2026-04-24 09:20 10.25315 7.49280 25347 ft 446 kts 16°
2026-04-24 09:20 10.28282 7.50213 25700 ft 446 kts 16°
2026-04-24 09:20 10.31253 7.51147 25997 ft 447 kts 16°
2026-04-24 09:20 10.34223 7.52083 26364 ft 447 kts 16°
2026-04-24 09:21 10.37192 7.53018 26627 ft 449 kts 16°
2026-04-24 09:21 10.40178 7.53959 26966 ft 448 kts 16°
2026-04-24 09:21 10.43157 7.54897 27279 ft 449 kts 16°
2026-04-24 09:21 10.46147 7.55839 27554 ft 450 kts 16°
2026-04-24 09:22 10.49141 7.56782 27836 ft 452 kts 16°
2026-04-24 09:22 10.52149 7.57730 28086 ft 454 kts 16°
2026-04-24 09:22 10.55168 7.58682 28388 ft 455 kts 16°
2026-04-24 09:22 10.58200 7.59638 28618 ft 456 kts 16°
2026-04-24 09:23 10.61229 7.60594 28943 ft 457 kts 16°
2026-04-24 09:23 10.63245 7.61230 29076 ft 458 kts 16°
2026-04-24 09:23 10.66291 7.62190 29362 ft 459 kts 16°
2026-04-24 09:23 10.69349 7.63156 29577 ft 461 kts 16°
2026-04-24 09:24 10.72417 7.64124 29841 ft 462 kts 16°
2026-04-24 09:24 10.75491 7.65094 30043 ft 464 kts 16°
2026-04-24 09:24 10.79586 7.66387 30294 ft 466 kts 16°
2026-04-24 09:24 10.81681 7.67049 30396 ft 468 kts 16°
2026-04-24 09:25 10.84796 7.68033 30604 ft 469 kts 16°
2026-04-24 09:25 10.87918 7.69019 30774 ft 471 kts 16°
2026-04-24 09:25 10.91053 7.70009 30959 ft 472 kts 16°
2026-04-24 09:25 10.94190 7.71001 31192 ft 473 kts 16°
2026-04-24 09:26 10.97326 7.71993 31445 ft 472 kts 16°
2026-04-24 09:26 11.00463 7.72985 31695 ft 472 kts 16°
2026-04-24 09:26 11.03600 7.73977 31941 ft 471 kts 16°
2026-04-24 09:26 11.06732 7.74969 32192 ft 471 kts 16°
2026-04-24 09:27 11.09867 7.75960 32417 ft 471 kts 15°
2026-04-24 09:27 11.12998 7.76950 32647 ft 472 kts 15°
2026-04-24 09:27 11.16140 7.77944 32860 ft 472 kts 15°
2026-04-24 09:27 11.19272 7.78935 33093 ft 472 kts 16°
2026-04-24 09:28 11.22375 7.79919 33262 ft 474 kts 15°
2026-04-24 09:28 11.25523 7.80916 33494 ft 474 kts 15°
2026-04-24 09:28 11.28677 7.81916 33692 ft 475 kts 15°
2026-04-24 09:28 11.31827 7.82915 33935 ft 474 kts 15°
2026-04-24 09:29 11.34983 7.83916 34087 ft 475 kts 15°
2026-04-24 09:29 11.38138 7.84917 34266 ft 476 kts 15°
2026-04-24 09:29 11.41305 7.85921 34420 ft 477 kts 14°
2026-04-24 09:29 11.44470 7.86925 34593 ft 477 kts 14°
2026-04-24 09:30 11.47643 7.87932 34747 ft 478 kts 14°
2026-04-24 09:30 11.51897 7.89284 34944 ft 479 kts 15°
2026-04-24 09:30 11.57199 7.90967 35206 ft 480 kts 15°
2026-04-24 09:31 11.60398 7.91982 35350 ft 481 kts 14°
2026-04-24 09:31 11.63596 7.92998 35503 ft 482 kts 15°
2026-04-24 09:31 11.66804 7.94018 35648 ft 483 kts 14°
2026-04-24 09:31 11.70014 7.95038 35792 ft 484 kts 15°
2026-04-24 09:32 11.73231 7.96060 35949 ft 484 kts 15°
2026-04-24 09:32 11.76449 7.97083 36098 ft 485 kts 15°
2026-04-24 09:32 11.79669 7.98108 36287 ft 484 kts 15°
2026-04-24 09:32 11.82892 7.99133 36432 ft 485 kts 15°
2026-04-24 09:33 11.86110 8.00158 36576 ft 485 kts 15°
2026-04-24 09:33 11.89340 8.01185 36708 ft 486 kts 15°
2026-04-24 09:33 11.92567 8.02213 36841 ft 486 kts 15°
2026-04-24 09:33 11.95793 8.03241 36870 ft 485 kts 15°
2026-04-24 09:34 12.02217 8.05289 36853 ft 483 kts 15°
2026-04-24 09:34 12.08634 8.07334 36862 ft 483 kts 15°
2026-04-24 09:35 12.15006 8.09366 36860 ft 483 kts 15°
2026-04-24 09:35 12.21430 8.11415 36865 ft 483 kts 15°
2026-04-24 09:36 12.27846 8.13464 36859 ft 483 kts 15°
2026-04-24 09:36 12.34259 8.15512 36846 ft 482 kts 15°
2026-04-24 09:37 12.40664 8.17559 36846 ft 482 kts 15°
2026-04-24 09:37 12.47063 8.19605 36857 ft 482 kts 15°
2026-04-24 09:38 12.53461 8.21651 36840 ft 482 kts 15°
2026-04-24 09:38 12.59865 8.23701 36856 ft 482 kts 15°
2026-04-24 09:39 12.66263 8.25750 36841 ft 482 kts 14°
2026-04-24 09:39 12.72622 8.27787 36854 ft 482 kts 14°
2026-04-24 09:40 12.79025 8.29840 36844 ft 482 kts 14°
2026-04-24 09:40 12.85420 8.31891 36857 ft 482 kts 14°
2026-04-24 09:41 12.91819 8.33944 36840 ft 482 kts 14°
2026-04-24 09:41 12.98217 8.35999 36835 ft 482 kts 14°
2026-04-24 09:42 13.04621 8.38042 36839 ft 481 kts 12°
2026-04-24 09:42 13.11184 8.38869 36844 ft 472 kts 355°
2026-04-24 09:43 13.17735 8.38461 36840 ft 471 kts 352°
2026-04-24 09:43 13.24265 8.37825 36840 ft 471 kts 351°
2026-04-24 09:44 13.30796 8.37171 36843 ft 472 kts 351°
2026-04-24 09:44 13.37331 8.36542 36847 ft 471 kts 351°
2026-04-24 09:45 13.43849 8.35932 36846 ft 469 kts 351°
2026-04-24 09:45 13.50344 8.35326 36848 ft 468 kts 351°
2026-04-24 09:46 13.56835 8.34719 36843 ft 469 kts 351°
2026-04-24 09:46 13.63331 8.34111 36841 ft 469 kts 351°
2026-04-24 09:47 13.69831 8.33501 36841 ft 469 kts 351°
2026-04-24 09:47 13.76284 8.32897 36843 ft 468 kts 351°
2026-04-24 09:48 13.82761 8.32289 36834 ft 467 kts 351°
2026-04-24 09:48 13.89231 8.31679 36834 ft 467 kts 351°
2026-04-24 09:49 13.95741 8.31066 36831 ft 467 kts 351°
2026-04-24 09:49 14.02171 8.30460 36831 ft 467 kts 351°
2026-04-24 09:50 14.08639 8.29850 36829 ft 467 kts 350°
2026-04-24 09:50 14.15125 8.29239 36829 ft 469 kts 350°
2026-04-24 09:51 14.21620 8.28625 36828 ft 469 kts 350°
2026-04-24 09:51 14.28120 8.28012 36828 ft 469 kts 350°
2026-04-24 09:52 14.34616 8.27398 36830 ft 469 kts 350°
2026-04-24 09:52 14.41114 8.26784 36820 ft 469 kts 350°
2026-04-24 09:53 14.47607 8.26171 36821 ft 469 kts 350°
2026-04-24 09:53 14.54103 8.25556 36813 ft 469 kts 350°
2026-04-24 09:54 14.60597 8.24941 36815 ft 468 kts 350°
2026-04-24 09:54 14.67088 8.24326 36816 ft 468 kts 350°
2026-04-24 09:55 14.73577 8.23711 36814 ft 468 kts 350°
2026-04-24 09:55 14.80069 8.23095 36813 ft 470 kts 350°
2026-04-24 09:56 14.86575 8.22475 36814 ft 475 kts 350°
2026-04-24 09:56 14.93162 8.21849 36815 ft 476 kts 350°
2026-04-24 09:57 14.99751 8.21225 36812 ft 475 kts 350°
2026-04-24 09:57 15.06339 8.20599 36809 ft 475 kts 350°
2026-04-24 09:58 15.12924 8.19975 36810 ft 475 kts 350°
2026-04-24 09:58 15.19512 8.19351 36812 ft 474 kts 349°
2026-04-24 09:59 15.26070 8.18730 36812 ft 472 kts 349°
2026-04-24 09:59 15.32615 8.18108 36812 ft 472 kts 349°
2026-04-24 10:00 15.39162 8.17486 36816 ft 472 kts 349°
2026-04-24 10:00 15.45711 8.16863 36815 ft 473 kts 349°
2026-04-24 10:01 15.52262 8.16241 36815 ft 473 kts 349°
2026-04-24 10:01 15.58813 8.15617 36811 ft 473 kts 349°
2026-04-24 10:02 15.65336 8.14996 36813 ft 473 kts 349°
2026-04-24 10:02 15.71895 8.14371 36813 ft 473 kts 349°
2026-04-24 10:03 15.78461 8.13745 36808 ft 473 kts 349°
2026-04-24 10:03 15.85020 8.13120 36823 ft 473 kts 349°
2026-04-24 10:04 15.91580 8.12494 36812 ft 473 kts 349°
2026-04-24 10:04 15.98129 8.11868 36816 ft 473 kts 349°
2026-04-24 10:05 16.04680 8.11242 36809 ft 473 kts 349°
2026-04-24 10:05 16.11232 8.10615 36810 ft 473 kts 349°
2026-04-24 10:06 16.21058 8.09675 36825 ft 473 kts 349°
2026-04-24 10:07 16.27609 8.09047 36811 ft 473 kts 349°
2026-04-24 10:07 16.34156 8.08419 36808 ft 473 kts 349°
2026-04-24 10:08 16.40701 8.07791 36806 ft 472 kts 349°
2026-04-24 10:08 16.47252 8.07162 36810 ft 472 kts 349°
2026-04-24 10:09 16.53800 8.06533 36809 ft 472 kts 349°
2026-04-24 10:09 16.60350 8.05903 36813 ft 473 kts 349°
2026-04-24 10:10 16.66908 8.05272 36802 ft 473 kts 349°
2026-04-24 10:10 16.73421 8.04645 36802 ft 473 kts 349°
2026-04-24 10:11 16.79984 8.04013 36809 ft 473 kts 349°
2026-04-24 10:11 16.86539 8.03382 36796 ft 473 kts 349°
2026-04-24 10:12 16.93102 8.02749 36855 ft 474 kts 349°
2026-04-24 10:12 16.98565 8.02230 36855 ft 474 kts 349°
2026-04-24 10:13 17.05155 8.01683 36855 ft 475 kts 349°
2026-04-24 10:13 17.11746 8.01167 36843 ft 475 kts 350°
2026-04-24 10:14 17.18333 8.00647 36829 ft 475 kts 349°
2026-04-24 10:14 17.24922 8.00119 36829 ft 475 kts 349°
2026-04-24 10:15 17.31507 7.99589 36797 ft 474 kts 349°
2026-04-24 10:15 17.38084 7.99058 36798 ft 474 kts 349°
2026-04-24 10:16 17.44662 7.98527 36802 ft 474 kts 349°
2026-04-24 10:16 17.51240 7.97995 36799 ft 474 kts 349°
2026-04-24 10:17 17.57819 7.97463 36796 ft 474 kts 349°
2026-04-24 10:17 17.64398 7.96931 36791 ft 474 kts 349°
2026-04-24 10:18 17.70997 7.96395 36799 ft 477 kts 349°
2026-04-24 10:18 17.77617 7.95859 36799 ft 477 kts 349°
2026-04-24 10:19 17.84235 7.95323 36798 ft 477 kts 349°
2026-04-24 10:19 17.90852 7.94787 36795 ft 477 kts 349°
2026-04-24 10:20 17.97468 7.94251 36796 ft 477 kts 349°
2026-04-24 10:20 18.04086 7.93713 36797 ft 477 kts 349°
2026-04-24 10:21 18.10705 7.93174 36793 ft 477 kts 349°
2026-04-24 10:21 18.17321 7.92636 36793 ft 477 kts 349°
2026-04-24 10:22 18.23937 7.92096 36795 ft 477 kts 349°
2026-04-24 10:22 18.30549 7.91559 36794 ft 474 kts 348°
2026-04-24 10:23 18.37087 7.91030 36796 ft 469 kts 348°
2026-04-24 10:23 18.43552 7.90502 36793 ft 469 kts 348°
2026-04-24 10:24 18.50068 7.89967 36794 ft 470 kts 348°
2026-04-24 10:24 18.56585 7.89432 36794 ft 470 kts 348°
2026-04-24 10:25 18.63102 7.88898 36799 ft 469 kts 348°
2026-04-24 10:25 18.69596 7.88368 36794 ft 467 kts 348°
2026-04-24 10:26 18.76075 7.87840 36794 ft 467 kts 348°
2026-04-24 10:26 18.82548 7.87307 36792 ft 467 kts 348°
2026-04-24 10:27 18.89021 7.86777 36790 ft 467 kts 348°
2026-04-24 10:27 18.95494 7.86245 36814 ft 467 kts 348°
2026-04-24 10:28 19.01963 7.85712 36792 ft 465 kts 348°
2026-04-24 10:28 19.08409 7.85184 36791 ft 464 kts 348°
2026-04-24 10:29 19.14850 7.84653 36789 ft 465 kts 348°
2026-04-24 10:29 19.21297 7.84121 36790 ft 465 kts 348°
2026-04-24 10:30 19.27743 7.83589 36793 ft 465 kts 348°
2026-04-24 10:30 19.34190 7.83058 36796 ft 464 kts 348°
2026-04-24 10:31 19.40623 7.82527 36799 ft 463 kts 347°
2026-04-24 10:31 19.47007 7.81999 36799 ft 463 kts 347°
2026-04-24 10:32 19.53440 7.81473 36795 ft 463 kts 348°
2026-04-24 10:32 19.59876 7.80962 36793 ft 464 kts 348°
2026-04-24 10:33 19.66309 7.80454 36802 ft 463 kts 347°
2026-04-24 10:33 19.72734 7.79945 36804 ft 462 kts 347°
2026-04-24 10:34 19.79149 7.79435 36802 ft 462 kts 347°
2026-04-24 10:34 19.85563 7.78923 36800 ft 462 kts 347°
2026-04-24 10:35 19.91982 7.78410 36805 ft 462 kts 347°
2026-04-24 10:35 19.98402 7.77898 36822 ft 463 kts 347°
2026-04-24 10:36 20.04824 7.77385 36811 ft 462 kts 347°
2026-04-24 10:36 20.11240 7.76873 36807 ft 462 kts 347°
2026-04-24 10:37 20.17658 7.76359 36812 ft 462 kts 347°
2026-04-24 10:37 20.24076 7.75845 36813 ft 462 kts 347°
2026-04-24 10:38 20.30494 7.75331 36828 ft 462 kts 347°
2026-04-24 10:38 20.36910 7.74816 36817 ft 462 kts 347°
2026-04-24 10:39 20.43330 7.74300 36817 ft 462 kts 347°
2026-04-24 10:39 20.49749 7.73784 36817 ft 462 kts 347°
2026-04-24 10:40 20.56123 7.73273 36817 ft 462 kts 347°
2026-04-24 10:40 20.62586 7.72752 36824 ft 463 kts 347°
2026-04-24 10:41 20.68965 7.72238 36821 ft 462 kts 346°
2026-04-24 10:41 20.75375 7.71722 36826 ft 462 kts 346°
2026-04-24 10:42 20.81780 7.71205 36826 ft 462 kts 346°
2026-04-24 10:42 20.88187 7.70687 36826 ft 462 kts 346°
2026-04-24 10:43 20.94596 7.70169 36826 ft 462 kts 346°
2026-04-24 10:43 21.00955 7.69493 36835 ft 456 kts 343°
2026-04-24 10:44 21.07223 7.68598 36837 ft 453 kts 342°
2026-04-24 10:44 21.13466 7.67677 36834 ft 453 kts 342°
2026-04-24 10:45 21.19725 7.66779 36835 ft 454 kts 343°
2026-04-24 10:45 21.25984 7.65900 36845 ft 454 kts 343°
2026-04-24 10:46 21.32246 7.65024 36844 ft 454 kts 343°
2026-04-24 10:46 21.38472 7.64153 36847 ft 454 kts 343°
2026-04-24 10:47 21.44731 7.63275 36849 ft 454 kts 343°
2026-04-24 10:47 21.50995 7.62394 36845 ft 454 kts 343°
2026-04-24 10:48 21.57258 7.61514 36844 ft 454 kts 343°
2026-04-24 10:48 21.63522 7.60633 36895 ft 454 kts 342°
2026-04-24 10:49 21.69769 7.59754 36850 ft 452 kts 342°
2026-04-24 10:49 21.76012 7.58873 36845 ft 453 kts 342°
2026-04-24 10:50 21.82261 7.57990 36840 ft 453 kts 342°
2026-04-24 10:50 21.88515 7.57106 36848 ft 453 kts 342°
2026-04-24 10:51 21.94771 7.56222 36851 ft 453 kts 342°
2026-04-24 10:51 22.01021 7.55339 36853 ft 452 kts 342°
2026-04-24 10:52 22.07257 7.54457 36856 ft 452 kts 342°
2026-04-24 10:52 22.13493 7.53572 36857 ft 452 kts 342°
2026-04-24 10:53 22.19731 7.52687 36859 ft 452 kts 342°
2026-04-24 10:53 22.25970 7.51800 36859 ft 452 kts 342°
2026-04-24 10:54 22.32208 7.50914 36863 ft 452 kts 342°
2026-04-24 10:54 22.38395 7.50034 36863 ft 452 kts 342°
2026-04-24 10:55 22.44625 7.49147 36867 ft 452 kts 342°
2026-04-24 10:55 22.50855 7.48259 36867 ft 452 kts 341°
2026-04-24 10:56 22.57083 7.47371 36871 ft 451 kts 341°
2026-04-24 10:56 22.63312 7.46481 36877 ft 451 kts 341°
2026-04-24 10:57 22.69536 7.45593 36875 ft 451 kts 341°
2026-04-24 10:57 22.75756 7.44703 36875 ft 451 kts 341°
2026-04-24 10:58 22.81978 7.43812 36882 ft 451 kts 341°
2026-04-24 10:58 22.88200 7.42920 36881 ft 451 kts 341°
2026-04-24 10:59 22.94425 7.42028 36917 ft 451 kts 341°
2026-04-24 10:59 22.99588 7.41287 36896 ft 450 kts 341°
2026-04-24 11:00 23.05792 7.40397 36880 ft 449 kts 341°
2026-04-24 11:00 23.11992 7.39505 36900 ft 449 kts 341°
2026-04-24 11:01 23.18188 7.38612 36895 ft 449 kts 341°
2026-04-24 11:01 23.24387 7.37719 36897 ft 449 kts 341°
2026-04-24 11:02 23.30582 7.36826 36905 ft 449 kts 341°
2026-04-24 11:02 23.36762 7.35935 36915 ft 448 kts 341°
2026-04-24 11:03 23.42945 7.35041 36904 ft 448 kts 341°
2026-04-24 11:03 23.49128 7.34146 36920 ft 448 kts 341°
2026-04-24 11:04 23.55345 7.33362 36921 ft 451 kts 342°
2026-04-24 11:04 23.61605 7.32719 36933 ft 452 kts 342°
2026-04-24 11:05 23.67859 7.32090 36928 ft 451 kts 342°
2026-04-24 11:05 23.74067 7.31446 36936 ft 451 kts 342°